Nebraska City, NE

4:19 PM CST on December 15, 2017 (GMT -0600)
Nebraska City Municipal

Weather History for KAFK - December, 2013

Change the Weather History Date:

Tuesday, December 10, 2013

  Actual Average (KSDA) Record (KSDA)
Temperature  
Mean Temperature 22 °F -  
Max Temperature 30 °F 39 °F 61 °F (1979)
Min Temperature 14 °F 20 °F -7 °F (1948)
Degree Days  
Heating Degree Days 43    
Moisture  
Dew Point 13 °F    
Average Humidity 68    
Maximum Humidity 79    
Minimum Humidity 57    
Precipitation  
Precipitation 0.01 in - - ()
Sea Level Pressure  
Sea Level Pressure 30.16 in    
Wind  
Wind Speed 14 mph (SW)    
Max Wind Speed 24 mph    
Max Gust Speed 31 mph    
Visibility 10 miles    
Events      
Averages and records for this station are not official NWS values.
T = Trace of Precipitation, MM = Missing Value Source: NWS Daily Summary

Daily Weather History Graph

Daily Weather History Graph

Search for Another Location

Airport or City:

Trip Planner

Search our weather history database for the weather conditions in past years. The results will help you decide how hot, cold, wet, or windy it might be!

Date:

Astronomy

Dec. 10, 2013 Rise Set
Actual Time 7:36 AM CST 4:56 PM CST
Civil Twilight 7:05 AM CST 5:27 PM CST
Nautical Twilight 6:31 AM CST 6:01 PM CST
Astronomical Twilight 5:58 AM CST 6:34 PM CST
Moon 12:59 PM CST (12/10) 12:54 AM CST (12/10)
Length of Visible Light 10h 21m
Length of Day
9h 19m
Waxing Gibbous, 62% of the Moon is Illuminated
Dec 10
Waxing Gibbous
Dec 17
Full
Dec 25
Last Quarter
Jan 1
New
Jan 7
First Quarter

Hourly Weather History & Observations

Time (CST) Temp. Windchill Dew Point Humidity Pressure Visibility Wind Dir Wind Speed Gust Speed Precip Events Conditions
12:15 AM 14.0 °F -4.3 °F 4.1 °F 65% 30.11 in 10.0 mi SW 21.9 mph 27.6 mph N/A   Scattered Clouds
12:35 AM 14.0 °F -5.1 °F 4.1 °F 65% 30.11 in 10.0 mi WSW 24.2 mph - N/A   Clear
12:55 AM 14.5 °F -3.6 °F 4.5 °F 64% 30.10 in 7.0 mi WSW 21.9 mph 31.1 mph N/A   Clear
1:15 AM 14.0 °F -3.9 °F 4.1 °F 65% 30.10 in 10.0 mi WSW 20.7 mph - N/A   Clear
1:35 AM 14.0 °F -3.4 °F 4.3 °F 65% 30.10 in 10.0 mi WSW 19.6 mph - N/A   Clear
1:55 AM 14.2 °F -4.1 °F 4.6 °F 66% 30.09 in 10.0 mi WSW 21.9 mph - N/A   Clear
2:15 AM 14.9 °F -2.3 °F 5.0 °F 65% 30.10 in 10.0 mi WSW 19.6 mph - N/A   Clear
2:35 AM 15.3 °F -2.2 °F 5.4 °F 65% 30.10 in 10.0 mi WSW 20.7 mph - N/A   Clear
2:55 AM 14.9 °F -1.3 °F 5.5 °F 66% 30.10 in 10.0 mi WSW 17.3 mph - N/A   Clear
3:15 AM 15.1 °F -0.1 °F 5.5 °F 66% 30.11 in 10.0 mi WSW 15.0 mph - N/A   Clear
3:35 AM 15.8 °F -0.6 °F 6.6 °F 67% 30.10 in 10.0 mi WSW 18.4 mph 23.0 mph N/A   Mostly Cloudy
4:35 AM 15.6 °F 0.1 °F 6.8 °F 68% 30.11 in 10.0 mi WSW 16.1 mph - N/A   Clear
4:55 AM 16.3 °F 1.0 °F 7.3 °F 68% 30.12 in 10.0 mi West 16.1 mph - N/A   Clear
5:15 AM 16.3 °F 1.0 °F 7.3 °F 68% 30.13 in 10.0 mi West 16.1 mph - N/A   Scattered Clouds
5:35 AM 16.0 °F 1.1 °F 7.3 °F 69% 30.13 in 10.0 mi West 15.0 mph - N/A   Scattered Clouds
5:55 AM 15.8 °F 0.3 °F 7.3 °F 69% 30.15 in 10.0 mi West 16.1 mph - N/A   Clear
6:15 AM 15.6 °F 1.2 °F 7.5 °F 70% 30.14 in 10.0 mi West 13.8 mph - N/A   Clear
6:35 AM 16.7 °F 2.6 °F 8.1 °F 69% 30.15 in 10.0 mi West 13.8 mph - N/A   Clear
6:55 AM 16.0 °F 2.9 °F 7.7 °F 70% 30.16 in 10.0 mi West 11.5 mph - N/A   Clear
7:15 AM 15.8 °F 2.1 °F 7.7 °F 70% 30.17 in 10.0 mi West 12.7 mph - N/A   Clear
7:35 AM 15.3 °F 2.8 °F 7.7 °F 72% 30.17 in 10.0 mi West 10.4 mph - N/A   Clear
7:55 AM 17.2 °F 4.5 °F 8.8 °F 69% 30.18 in 10.0 mi West 11.5 mph - N/A   Clear
8:15 AM 17.1 °F 4.3 °F 9.0 °F 71% 30.20 in 10.0 mi West 11.5 mph - N/A   Clear
8:35 AM 19.0 °F 8.2 °F 9.7 °F 67% 30.21 in 10.0 mi West 9.2 mph - N/A   Clear
8:55 AM 19.2 °F 9.3 °F 10.2 °F 68% 30.22 in 10.0 mi West 8.1 mph - N/A   Clear
9:15 AM 19.8 °F 10.8 °F 10.2 °F 67% 30.23 in 10.0 mi West 6.9 mph - N/A   Clear
9:35 AM 18.0 °F 7.7 °F 9.9 °F 71% 30.24 in 10.0 mi WNW 8.1 mph - N/A   Clear
9:55 AM 22.1 °F 10.6 °F 9.0 °F 57% 30.25 in 10.0 mi NW 11.5 mph - N/A   Clear
10:15 AM 22.6 °F 13.4 °F 9.3 °F 57% 30.26 in 10.0 mi NW 8.1 mph - N/A   Clear
10:35 AM 23.0 °F 13.9 °F 9.9 °F 57% 30.26 in 10.0 mi West 8.1 mph - N/A   Clear
10:55 AM 21.7 °F 13.2 °F 12.0 °F 66% 30.27 in 10.0 mi WSW 6.9 mph - N/A   Clear
11:15 AM 22.1 °F 15.9 °F 12.0 °F 65% 30.26 in 10.0 mi West 4.6 mph - N/A   Clear
11:35 AM 22.8 °F 18.2 °F 12.2 °F 64% 30.25 in 10.0 mi WSW 3.5 mph - N/A   Unknown
11:55 AM 23.7 °F 16.6 °F 13.5 °F 65% 30.22 in 10.0 mi SW 5.8 mph - N/A   Clear
12:15 PM 23.9 °F 19.5 °F 13.5 °F 64% 30.22 in 10.0 mi SW 3.5 mph - N/A   Clear
12:35 PM 24.6 °F 15.1 °F 13.3 °F 62% 30.21 in 10.0 mi SW 9.2 mph - N/A   Clear
12:55 PM 25.3 °F 17.6 °F 13.8 °F 62% 30.20 in 10.0 mi SW 6.9 mph - N/A   Clear
1:15 PM 26.1 °F 18.4 °F 14.5 °F 62% 30.19 in 10.0 mi SSW 6.9 mph - N/A   Clear
1:35 PM 26.4 °F 18.9 °F 14.5 °F 61% 30.18 in 10.0 mi South 6.9 mph - 0.01 in   Clear
1:55 PM 27.5 °F 20.2 °F 15.8 °F 61% 30.16 in 10.0 mi SSW 6.9 mph - 0.01 in   Clear
2:15 PM 28.4 °F 20.4 °F 16.7 °F 62% 30.15 in 10.0 mi SSW 8.1 mph - N/A   Clear
2:35 PM 28.9 °F 19.8 °F 17.4 °F 62% 30.15 in 10.0 mi SSW 10.4 mph - N/A   Clear
2:55 PM 30.0 °F 20.0 °F 18.5 °F 62% 30.14 in 10.0 mi SSW 12.7 mph - N/A   Clear
3:15 PM 29.3 °F 20.8 °F 18.7 °F 65% 30.14 in 10.0 mi South 9.2 mph - N/A   Clear
3:35 PM 28.4 °F 21.2 °F 18.0 °F 65% 30.14 in 10.0 mi SSW 6.9 mph - N/A   Clear
3:55 PM 27.0 °F 19.5 °F 18.1 °F 69% 30.14 in 10.0 mi South 6.9 mph - N/A   Clear
4:15 PM 26.6 °F 19.1 °F 18.3 °F 71% 30.14 in 10.0 mi South 6.9 mph - N/A   Clear
4:35 PM 27.1 °F 18.9 °F 18.7 °F 70% 30.14 in 10.0 mi SSW 8.1 mph - N/A   Clear
4:55 PM 27.1 °F 17.5 °F 18.1 °F 69% 30.14 in 10.0 mi SSW 10.4 mph - N/A   Clear
5:15 PM 27.3 °F 19.9 °F 18.3 °F 69% 30.14 in 10.0 mi SSW 6.9 mph - N/A   Clear
5:35 PM 25.9 °F 20.3 °F 18.5 °F 74% 30.14 in 10.0 mi South 4.6 mph - N/A   Clear
5:55 PM 25.0 °F 17.1 °F 18.5 °F 76% 30.13 in 10.0 mi South 6.9 mph - N/A   Clear
6:15 PM 25.9 °F 18.2 °F 19.0 °F 75% 30.14 in 10.0 mi South 6.9 mph - N/A   Clear
6:35 PM 25.7 °F 18.0 °F 19.0 °F 76% 30.14 in 10.0 mi South 6.9 mph - N/A   Clear
6:55 PM 25.5 °F 16.9 °F 18.9 °F 76% 30.14 in 10.0 mi South 8.1 mph - N/A   Clear
7:15 PM 26.1 °F 17.6 °F 18.9 °F 74% 30.14 in 10.0 mi South 8.1 mph - N/A   Scattered Clouds
7:35 PM 26.1 °F 16.8 °F 18.9 °F 74% 30.14 in 10.0 mi South 9.2 mph - N/A   Scattered Clouds
7:55 PM 25.5 °F 17.8 °F 18.5 °F 75% 30.15 in 10.0 mi SSW 6.9 mph - N/A   Clear
8:15 PM 25.9 °F 17.4 °F 18.5 °F 74% 30.15 in 10.0 mi SSW 8.1 mph - N/A   Scattered Clouds
8:35 PM 25.5 °F 16.2 °F 18.3 °F 74% 30.15 in 10.0 mi SSW 9.2 mph - N/A   Mostly Cloudy
8:55 PM 25.7 °F 15.7 °F 18.3 °F 74% 30.15 in 10.0 mi SSW 10.4 mph - N/A   Mostly Cloudy
9:15 PM 26.4 °F 17.3 °F 18.9 °F 73% 30.15 in 10.0 mi SSW 9.2 mph - N/A   Overcast
9:35 PM 26.4 °F 17.3 °F 19.2 °F 74% 30.16 in 10.0 mi SSW 9.2 mph - N/A   Overcast
9:55 PM 26.4 °F 17.3 °F 19.4 °F 75% 30.16 in 10.0 mi SSW 9.2 mph - N/A   Overcast
10:15 PM 26.6 °F 16.8 °F 19.2 °F 74% 30.16 in 10.0 mi SW 10.4 mph - N/A   Mostly Cloudy
10:35 PM 26.4 °F 16.0 °F 18.9 °F 73% 30.17 in 10.0 mi SW 11.5 mph - N/A   Mostly Cloudy
10:55 PM 24.6 °F 15.1 °F 18.5 °F 78% 30.17 in 10.0 mi WSW 9.2 mph - N/A   Scattered Clouds
11:15 PM 24.8 °F 16.9 °F 19.0 °F 79% 30.19 in 10.0 mi WSW 6.9 mph - N/A   Scattered Clouds
11:35 PM 27.7 °F 17.1 °F 20.1 °F 73% 30.22 in 10.0 mi NNW 12.7 mph 24.2 mph N/A   Mostly Cloudy
11:55 PM 26.6 °F 21.2 °F 20.3 °F 77% 30.22 in 10.0 mi NNW 4.6 mph - N/A   Mostly Cloudy